Nampa, ID

10:37 PM MDT on June 24, 2017 (GMT -0600)
Nampa

Weather History for KMAN - April, 2013

Change the Weather History Date:

Tuesday, April 30, 2013

  Actual Average (KBOI) Record (KBOI)
Temperature  
Mean Temperature 45 °F -  
Max Temperature 53 °F 67 °F 84 °F (1998)
Min Temperature 37 °F 40 °F 25 °F (1972)
Degree Days  
Heating Degree Days 20    
Moisture  
Dew Point 16 °F    
Average Humidity 33    
Maximum Humidity 52    
Minimum Humidity 16    
Precipitation  
Precipitation 0.00 in - - ()
Sea Level Pressure  
Sea Level Pressure 30.08 in    
Wind  
Wind Speed 13 mph (NW)    
Max Wind Speed 22 mph    
Max Gust Speed 32 mph    
Visibility 10 miles    
Events      
Averages and records for this station are not official NWS values.
T = Trace of Precipitation, MM = Missing Value Source: NWS Daily Summary

Daily Weather History Graph

Daily Weather History Graph

Search for Another Location

Airport or City:

Trip Planner

Search our weather history database for the weather conditions in past years. The results will help you decide how hot, cold, wet, or windy it might be!

Date:

Astronomy

Apr. 30, 2013 Rise Set
Actual Time 6:39 AM MDT 8:47 PM MDT
Civil Twilight 6:08 AM MDT 9:19 PM MDT
Nautical Twilight 5:29 AM MDT 9:57 PM MDT
Astronomical Twilight 4:47 AM MDT 10:40 PM MDT
Moon 1:16 AM MDT (4/30) 11:11 AM MDT (4/30)
Length of Visible Light 15h 10m
Length of Day
14h 08m
Waning Gibbous, 69% of the Moon is Illuminated
Apr 30
Waning Gibbous
May 2
Last Quarter
May 9
New
May 17
First Quarter
May 24
Full

Hourly Weather History & Observations

Time (MDT) Temp. Windchill Dew Point Humidity Pressure Visibility Wind Dir Wind Speed Gust Speed Precip Events Conditions
12:15 AM 46.4 °F 41.1 °F 14.0 °F 27% 29.94 in 10.0 mi NW 11.5 mph - N/A   Clear
12:35 AM 46.4 °F 41.1 °F 14.0 °F 27% 29.95 in 10.0 mi NW 11.5 mph 17.3 mph N/A   Clear
12:55 AM 44.6 °F 38.4 °F 14.0 °F 29% 29.95 in 10.0 mi NW 12.7 mph 17.3 mph N/A   Clear
1:15 AM 44.6 °F 38.8 °F 14.0 °F 29% 29.95 in 10.0 mi NW 11.5 mph 17.3 mph N/A   Clear
1:35 AM 44.6 °F 39.7 °F 15.8 °F 31% 29.96 in 10.0 mi NW 9.2 mph 16.1 mph N/A   Clear
1:55 AM 44.6 °F 39.2 °F 15.8 °F 31% 29.96 in 10.0 mi NW 10.4 mph 16.1 mph N/A   Unknown
2:15 AM 44.6 °F 38.8 °F 15.8 °F 31% 29.96 in 10.0 mi NW 11.5 mph - N/A   Unknown
2:35 AM 42.8 °F 36.6 °F 15.8 °F 34% 29.96 in 10.0 mi NW 11.5 mph - N/A   Unknown
2:55 AM 41.0 °F 35.2 °F 17.6 °F 39% 29.96 in 10.0 mi NW 9.2 mph 16.1 mph N/A   Unknown
3:15 AM 41.0 °F 35.2 °F 17.6 °F 39% 29.96 in 10.0 mi NNW 9.2 mph - N/A   Unknown
3:35 AM 39.2 °F 33.0 °F 19.4 °F 45% 29.97 in 10.0 mi NW 9.2 mph - N/A   Unknown
3:55 AM 39.2 °F 32.5 °F 19.4 °F 45% 29.97 in 10.0 mi NW 10.4 mph 16.1 mph N/A   Clear
4:15 AM 39.2 °F 34.2 °F 19.4 °F 45% 29.98 in 10.0 mi NNW 6.9 mph - N/A   Clear
4:35 AM 37.4 °F 31.4 °F 19.4 °F 48% 29.99 in 10.0 mi North 8.1 mph - N/A   Clear
4:55 AM 37.4 °F 30.8 °F 19.4 °F 48% 29.99 in 10.0 mi NW 9.2 mph - N/A   Clear
5:15 AM 37.4 °F 32.1 °F 19.4 °F 48% 30.00 in 10.0 mi North 6.9 mph - N/A   Clear
5:35 AM 37.4 °F 32.8 °F 21.2 °F 52% 30.00 in 10.0 mi NW 5.8 mph - N/A   Partly Cloudy
5:55 AM 37.4 °F 31.4 °F 19.4 °F 48% 30.01 in 10.0 mi NW 8.1 mph - N/A   Clear
6:15 AM 37.4 °F 31.4 °F 19.4 °F 48% 30.01 in 10.0 mi NW 8.1 mph - N/A   Clear
6:35 AM 37.4 °F 29.8 °F 19.4 °F 48% 30.02 in 10.0 mi NW 11.5 mph 17.3 mph N/A   Clear
6:55 AM 37.4 °F 30.3 °F 19.4 °F 48% 30.03 in 10.0 mi NW 10.4 mph - N/A   Clear
7:15 AM 37.4 °F 29.8 °F 19.4 °F 48% 30.04 in 10.0 mi NW 11.5 mph - N/A   Clear
7:35 AM 37.4 °F 29.8 °F 19.4 °F 48% 30.05 in 10.0 mi NW 11.5 mph - N/A   Clear
7:55 AM 39.2 °F 31.6 °F 19.4 °F 45% 30.05 in 10.0 mi NW 12.7 mph 23.0 mph N/A   Clear
8:15 AM 39.2 °F 31.6 °F 19.4 °F 45% 30.06 in 10.0 mi NW 12.7 mph 18.4 mph N/A   Clear
8:35 AM 41.0 °F 32.8 °F 19.4 °F 42% 30.07 in 10.0 mi NW 16.1 mph 20.7 mph N/A   Clear
8:55 AM 41.0 °F 31.9 °F 19.4 °F 42% 30.07 in 10.0 mi NW 19.6 mph 26.5 mph N/A   Clear
9:15 AM 41.0 °F 32.5 °F 17.6 °F 39% 30.07 in 10.0 mi NW 17.3 mph 24.2 mph N/A   Clear
9:35 AM 42.8 °F 34.3 °F 17.6 °F 36% 30.07 in 10.0 mi WNW 19.6 mph - N/A   Clear
9:55 AM 42.8 °F 35.1 °F 17.6 °F 36% 30.08 in 10.0 mi NW 16.1 mph 23.0 mph N/A   Clear
10:15 AM 44.6 °F 36.4 °F 19.4 °F 37% 30.07 in 10.0 mi WNW 20.7 mph 24.2 mph N/A   Clear
10:35 AM 44.6 °F 37.2 °F 19.4 °F 37% 30.08 in 10.0 mi NW 17.3 mph 25.3 mph N/A   Clear
10:55 AM 46.4 °F 38.7 °F 19.4 °F 34% 30.08 in 10.0 mi NW 20.7 mph 25.3 mph N/A   Clear
11:15 AM 46.4 °F 40.1 °F 19.4 °F 34% 30.08 in 10.0 mi NW 15.0 mph 24.2 mph N/A   Partly Cloudy
11:35 AM 46.4 °F 40.1 °F 17.6 °F 32% 30.08 in 10.0 mi NW 15.0 mph 20.7 mph N/A   Scattered Clouds
11:55 AM 48.2 °F - 17.6 °F 30% 30.08 in 10.0 mi WNW 16.1 mph 23.0 mph N/A   Scattered Clouds
12:15 PM 48.2 °F - 17.6 °F 30% 30.08 in 10.0 mi NW 16.1 mph 21.9 mph N/A   Partly Cloudy
12:35 PM 50.0 °F - 15.8 °F 26% 30.08 in 10.0 mi NW 11.5 mph 24.2 mph N/A   Partly Cloudy
12:55 PM 50.0 °F - 15.8 °F 26% 30.07 in 10.0 mi WNW 16.1 mph 24.2 mph N/A   Partly Cloudy
1:15 PM 50.0 °F - 14.0 °F 24% 30.07 in 10.0 mi NW 15.0 mph 29.9 mph N/A   Partly Cloudy
1:35 PM 50.0 °F - 14.0 °F 24% 30.07 in 10.0 mi NW 13.8 mph 18.4 mph N/A   Partly Cloudy
1:55 PM 51.8 °F - 14.0 °F 22% 30.07 in 10.0 mi NW 15.0 mph 18.4 mph N/A   Partly Cloudy
2:15 PM 51.8 °F - 14.0 °F 22% 30.07 in 10.0 mi NW 17.3 mph 24.2 mph N/A   Scattered Clouds
2:35 PM 53.6 °F - 12.2 °F 19% 30.08 in 10.0 mi NW 13.8 mph 24.2 mph N/A   Partly Cloudy
2:55 PM 53.6 °F - 10.4 °F 18% 30.08 in 10.0 mi WNW 15.0 mph 23.0 mph N/A   Partly Cloudy
3:15 PM 51.8 °F - 8.6 °F 18% 30.08 in 10.0 mi NNW 12.7 mph 21.9 mph N/A   Partly Cloudy
3:35 PM 53.6 °F - 10.4 °F 18% 30.09 in 10.0 mi NNW 17.3 mph 26.5 mph N/A   Clear
3:55 PM 53.6 °F - 8.6 °F 16% 30.09 in 10.0 mi NW 15.0 mph 25.3 mph N/A   Partly Cloudy
4:15 PM 53.6 °F - 10.4 °F 18% 30.09 in 10.0 mi NNW 15.0 mph 32.2 mph N/A   Partly Cloudy
4:35 PM 53.6 °F - 10.4 °F 18% 30.09 in 10.0 mi NNW 15.0 mph 28.8 mph N/A   Partly Cloudy
4:55 PM 53.6 °F - 10.4 °F 18% 30.09 in 10.0 mi NNW 13.8 mph 27.6 mph N/A   Clear
5:15 PM 53.6 °F - 10.4 °F 18% 30.09 in 10.0 mi NW 20.7 mph 27.6 mph N/A   Clear
5:35 PM 53.6 °F - 8.6 °F 16% 30.10 in 10.0 mi NW 18.4 mph 26.5 mph N/A   Clear
5:55 PM 51.8 °F - 8.6 °F 18% 30.11 in 10.0 mi NNW 18.4 mph 29.9 mph N/A   Clear
6:15 PM 51.8 °F - 10.4 °F 19% 30.11 in 10.0 mi North 18.4 mph 31.1 mph N/A   Clear
6:35 PM 50.0 °F - 8.6 °F 19% 30.12 in 10.0 mi North 21.9 mph 29.9 mph N/A   Clear
6:55 PM 50.0 °F - 8.6 °F 19% 30.13 in 10.0 mi NNW 19.6 mph 29.9 mph N/A   Clear
7:15 PM 50.0 °F - 6.8 °F 17% 30.14 in 10.0 mi NW 19.6 mph 28.8 mph N/A   Clear
7:35 PM 48.2 °F - 10.4 °F 22% 30.15 in 10.0 mi NNW 20.7 mph 32.2 mph N/A   Clear
7:55 PM 48.2 °F - 10.4 °F 22% 30.16 in 10.0 mi NNW 19.6 mph 27.6 mph N/A   Clear
8:15 PM 46.4 °F 40.1 °F 14.0 °F 27% 30.18 in 10.0 mi NNW 15.0 mph 27.6 mph N/A   Clear
8:35 PM 46.4 °F 41.1 °F 19.4 °F 34% 30.20 in 10.0 mi North 11.5 mph - N/A   Mostly Cloudy
8:55 PM 44.6 °F 38.4 °F 19.4 °F 37% 30.21 in 10.0 mi NNW 12.7 mph 19.6 mph N/A   Overcast
9:15 PM 44.6 °F 38.1 °F 17.6 °F 34% 30.22 in 10.0 mi NNW 13.8 mph 19.6 mph N/A   Overcast
9:35 PM 42.8 °F 36.6 °F 19.4 °F 39% 30.23 in 10.0 mi NNW 11.5 mph - N/A   Mostly Cloudy
9:55 PM 41.0 °F 35.2 °F 19.4 °F 42% 30.24 in 10.0 mi NNW 9.2 mph 16.1 mph N/A   Unknown
10:15 PM 41.0 °F 35.8 °F 19.4 °F 42% 30.25 in 10.0 mi NW 8.1 mph - N/A   Unknown
10:35 PM 41.0 °F 35.8 °F 19.4 °F 42% 30.26 in 10.0 mi NW 8.1 mph - N/A   Clear
10:55 PM 39.2 °F 33.0 °F 19.4 °F 45% 30.27 in 10.0 mi NNW 9.2 mph - N/A   Clear
11:15 PM 39.2 °F 33.0 °F 19.4 °F 45% 30.28 in 10.0 mi NW 9.2 mph - N/A   Clear
11:35 PM 39.2 °F 33.6 °F 19.4 °F 45% 30.29 in 10.0 mi NW 8.1 mph - N/A   Clear
11:55 PM 39.2 °F 32.5 °F 19.4 °F 45% 30.29 in 10.0 mi NW 10.4 mph - N/A   Clear